www.pogodaiklimat.ru

Погода и климат >> Архив погоды >> Германия >> Berlin


АРХИВ ПОГОДЫ в Berlin

Время (UTC), дата Ветер
(напр.,м/с)
 
Видим.   Явления Облачность Т
(С)
Тd
(С)
f
(%)
Тe
(С)
Тes
(С)
Комфортность P
(гПа)
Po
(гПа)
Тmin
(С)
Tmax
(С)
R
(мм)
R24
(мм)
S
(см)
23 11.01 В 2-3
{5}
н/о н/о +2.3 +1.7 96 -1 -1 тепло 1023.1 1016.9
22 11.01 В 3-4
{5}
н/о н/о +2.2 +1.7 96 -2 -2 тепло 1022.6 1016.4
00 12.01 В 3 н/о н/о +2.1 +1.5 96 -2 -2 по сезону 1023.6 1017.4
01 12.01 В 2-3
{5}
н/о н/о +1.9 +1.6 98 -2 -2 тепло 1023.9 1017.7
02 12.01 В 3-4
{6}
н/о н/о +2.0 +1.5 96 -2 -2 тепло 1024.4 1018.2
03 12.01 В 4-6
{6}
н/о н/о +1.8 +1.3 96 -3 -3 по сезону 1024.9 1018.7
05 12.01 В 4-5
{6}
н/о н/о +1.6 +1.3 98 -4 -4 тепло 1025.7 1019.5
04 12.01 В 4-5
{6}
н/о н/о +1.8 +1.4 97 -3 -3 тепло 1025.4 1019.2
06 12.01 В 4 н/о н/о +1.5 +1.1 97 -4 -4 по сезону 1026.2 1020.0 +1.5 +2.6
07 12.01 В 4-6
{7}
н/о н/о +1.2 +0.8 97 -4 -4 тепло 1026.9 1020.7
08 12.01 В 4-5
{6}
н/о н/о +1.3 +0.5 94 -4 -4 по сезону 1027.6 1021.4
09 12.01 В 4 н/о н/о +1.4 +0.4 93 -4 -4 по сезону 1028.1 1021.9 0.0
11 12.01 В 4-6
{6}
н/о н/о +1.7 +0.5 92 -3 -3 тепло 1028.9 1022.7
10 12.01 В 4-6
{7}
н/о н/о +1.5 +0.5 93 -4 -4 по сезону 1028.6 1022.4
12 12.01 В 4-6
{7}
н/о н/о +1.6 +0.6 93 -4 -4 по сезону 1029.1 1022.9 0.0
13 12.01 В 4-6
{6}
н/о н/о +1.6 +0.8 94 -4 -4 тепло 1029.1 1022.9
14 12.01 В 4-6
{7}
н/о н/о +1.7 +0.9 94 -4 -4 по сезону 1029.4 1023.2
15 12.01 В 4-6
{7}
н/о н/о +1.7 +0.6 92 -3 -3 по сезону 1029.7 1023.5
17 12.01 В 5-7
{8}
н/о н/о +1.6 +0.7 94 -4 -4 тепло 1030.5 1024.3
16 12.01 В 5-8
{8}
н/о н/о +1.6 +0.7 94 -4 -4 по сезону 1030.2 1024.0
18 12.01 В 4 н/о н/о +1.6 +0.5 92 -4 -4 по сезону 1030.8 1024.6 +1.2 +1.7
19 12.01 В 5-8
{8}
н/о н/о +1.6 +0.2 90 -4 -4 тепло 1031.2 1025.0
20 12.01 В 4-5
{7}
н/о н/о +1.4 +0.5 94 -4 -4 по сезону 1031.8 1025.5
21 12.01 В 4-7
{8}
н/о н/о +1.3 +0.4 94 -4 -4 по сезону 1032.0 1025.7
23 12.01 В 5-9
{9}
н/о н/о +0.9 -0.5 90 -5 -5 тепло 1032.3 1026.0
22 12.01 В 5-7
{8}
н/о н/о +1.1 0.0 92 -5 -5 по сезону 1032.3 1026.0
00 13.01 В 5 н/о н/о +0.8 -0.7 90 -5 -5 по сезону 1032.2 1025.9
01 13.01 В 5-7
{8}
н/о н/о +0.7 -1.0 88 -5 -5 тепло 1032.4 1026.1
02 13.01 В 6-8
{9}
н/о н/о +0.7 -1.3 86 -6 -6 по сезону 1032.6 1026.3
03 13.01 В 6-9
{9}
н/о н/о +0.5 -1.4 87 -6 -6 по сезону 1032.4 1026.1
05 13.01 В 5-9
{9}
н/о н/о +0.4 -1.7 86 -6 -6 тепло 1032.3 1026.0
04 13.01 В 5-8
{9}
н/о н/о +0.5 -1.4 87 -5 -5 тепло 1032.4 1026.1
06 13.01 В 6 н/о н/о +0.5 -1.9 84 -6 -6 по сезону 1032.5 1026.2 +0.4 +1.6 0.0
07 13.01 В 5-8
{9}
н/о н/о +0.4 -2.5 81 -6 -6 тепло 1032.5 1026.2
08 13.01 В 5-8
{10}
н/о н/о +0.2 -2.8 80 -6 -6 по сезону 1032.8 1026.5
09 13.01 В 5 н/о н/о +0.1 -3.3 78 -6 -6 по сезону 1033.1 1026.8 0.0
11 13.01 В 6-9
{10}
н/о н/о -0.2 -4.2 74 -7 -7 тепло 1033.1 1026.8
10 13.01 В 6-8
{10}
н/о н/о +0.1 -3.9 74 -6 -6 по сезону 1033.3 1027.0
12 13.01 В 5-8
{10}
н/о н/о -0.1 -4.6 72 -6 -6 прохладно 1032.7 1026.4 0.0
13 13.01 ЮВ 6-9
{10}
н/о н/о -0.1 -4.9 70 -6 -6 тепло 1032.5 1026.2
14 13.01 В 4-8
{8}
н/о н/о 0.0 -5.3 67 -5 -5 по сезону 1032.0 1025.7
15 13.01 ЮВ 6-9
{10}
н/о н/о +0.3 -5.5 65 -6 -6 прохладно 1031.9 1025.6 0.0
17 13.01 В 5-7
{9}
н/о н/о +0.4 -4.7 69 -5 -5 тепло 1032.2 1025.9
16 13.01 ЮВ 4-7
{10}
н/о н/о +0.5 -5.2 66 -4 -4 по сезону 1032.2 1025.9
18 13.01 ЮВ 6 н/о н/о +0.3 -5.0 68 -6 -6 по сезону 1032.2 1025.9 -0.3 +0.5
19 13.01 ЮВ 6-9
{11}
н/о н/о +0.2 -5.4 66 -6 -6 тепло 1032.3 1026.0
20 13.01 ЮВ 5-7
{11}
н/о н/о +0.1 -5.1 68 -6 -6 по сезону 1032.2 1025.9
21 13.01 В 5-8
{11}
н/о н/о +0.1 -5.2 67 -6 -6 по сезону 1031.9 1025.6 0.0
23 13.01 В 4-7
{8}
н/о н/о +0.3 -5.2 67 -5 -5 тепло 1031.1 1024.8
22 13.01 В 5-8
{10}
н/о н/о +0.2 -5.2 67 -5 -5 по сезону 1031.2 1024.9
00 14.01 В 5 н/о н/о +0.2 -5.1 68 -5 -5 по сезону 1030.9 1024.6
01 14.01 В 5-8
{9}
н/о н/о -0.7 -5.4 70 -7 -7 тепло 1030.7 1024.4
02 14.01 В 5-7
{8}
н/о н/о -1.2 -5.5 73 -7 -7 по сезону 1030.4 1024.1
03 14.01 В 4-6
{9}
н/о н/о -1.8 -5.7 75 -7 -7 по сезону 1030.6 1024.3
05 14.01 В 4-5
{6}
н/о н/о -2.5 -5.9 77 -8 -8 тепло 1030.3 1024.0
04 14.01 В 4-5
{6}
н/о н/о -2.1 -5.7 76 -8 -8 по сезону 1030.5 1024.2
06 14.01 В 4 н/о н/о -2.8 -6.0 79 -9 -9 прохладно 1030.4 1024.1 -2.8 +0.3 0.0
07 14.01 В 5-6
{7}
н/о н/о -2.7 -5.8 79 -9 -9 тепло 1030.5 1024.2
08 14.01 В 4-7
{7}
н/о н/о -2.6 -5.6 80 -9 -9 по сезону 1030.4 1024.1
09 14.01 В 4 н/о н/о -1.6 -5.4 75 -7 -7 прохладно 1030.6 1024.3
11 14.01 В 5-8
{8}
н/о н/о -0.5 -5.2 70 -6 -6 тепло 1030.3 1024.0
10 14.01 В 5-8
{8}
н/о н/о -1.1 -5.5 72 -7 -7 по сезону 1030.7 1024.4
12 14.01 ЮВ 5-8
{9}
н/о н/о -0.1 -5.0 70 -6 -6 прохладно 1029.8 1023.5
13 14.01 ЮВ 4-7
{8}
н/о н/о -0.2 -5.2 69 -5 -5 тепло 1029.6 1023.3
14 14.01 В 4-7
{8}
н/о н/о -0.3 -5.2 69 -6 -6 по сезону 1029.3 1023.0
15 14.01 В 5-7
{8}
н/о н/о -0.8 -5.3 72 -7 -7 прохладно 1029.1 1022.8
17 14.01 ЮВ 3-5
{5}
н/о н/о -1.9 -5.4 77 -7 -7 тепло 1028.9 1022.6
16 14.01 ЮВ 3-6
{7}
н/о н/о -1.4 -5.4 74 -6 -6 по сезону 1029.1 1022.8
18 14.01 ЮВ 4 н/о н/о -2.0 -5.5 77 -8 -8 прохладно 1028.8 1022.5 -2.9 -0.1
19 14.01 ЮВ 4-6
{6}
н/о н/о -2.4 -5.6 79 -8 -8 тепло 1028.7 1022.4
20 14.01 ЮВ 4-5
{7}
н/о н/о -3.1 -5.8 82 -9 -9 по сезону 1028.4 1022.1
21 14.01 ЮВ 4-6
{7}
н/о н/о -2.9 -5.8 80 -9 -9 прохладно 1028.1 1021.8
23 14.01 ЮВ 4-8
{8}
н/о н/о -2.5 -5.6 79 -8 -8 тепло 1027.4 1021.1
22 14.01 ЮВ 4-7
{7}
н/о н/о -2.8 -5.7 80 -9 -9 по сезону 1028.0 1021.7
00 15.01 ЮВ 5 н/о н/о -2.5 -5.7 79 -9 -9 прохладно 1027.0 1020.7
01 15.01 ЮВ 4-7
{8}
н/о н/о -2.6 -5.7 79 -8 -8 тепло 1026.4 1020.1
02 15.01 ЮВ 5-7
{8}
н/о н/о -2.5 -5.5 80 -9 -9 по сезону 1025.4 1019.1
03 15.01 ЮВ 4-6
{8}
н/о н/о -2.5 -5.3 81 -8 -8 прохладно 1024.5 1018.2
05 15.01 ЮВ 4-6
{6}
н/о н/о -1.8 -5.0 79 -8 -8 тепло 1022.8 1016.5
04 15.01 ЮВ 4-6
{6}
н/о н/о -2.2 -5.2 80 -8 -8 по сезону 1023.6 1017.3
06 15.01 ЮВ 4 н/о н/о -1.4 -4.8 78 -7 -7 по сезону 1022.1 1015.8 -3.1 -1.3
07 15.01 ЮВ 4-6
{8}
н/о н/о -1.8 -4.9 79 -8 -8 тепло 1021.5 1015.2
08 15.01 ЮВ 5-8
{8}
н/о н/о -1.9 -4.9 80 -8 -8 по сезону 1021.1 1014.8
09 15.01 ЮВ 5 н/о н/о -1.2 -4.6 78 -7 -7 прохладно 1020.1 1013.9
11 15.01 Ю 5-9
{10}
н/о н/о +2.0 -3.4 67 -3 -3 тепло 1017.9 1011.7
10 15.01 Ю 5-9
{10}
н/о н/о +0.4 -3.9 73 -5 -5 по сезону 1019.3 1013.1
12 15.01 Ю 6-10
{10}
н/о н/о +3.1 -3.1 64 -2 -2 по сезону 1016.1 1010.0
13 15.01 Ю 6-9
{10}
н/о н/о +3.2 -3.2 63 -2 -2 тепло 1014.6 1008.5
14 15.01 Ю 6-10
{11}
н/о н/о +3.2 -3.3 62 -2 -2 тепло 1013.5 1007.4
15 15.01 ЮВ 6-9
{11}
н/о н/о +2.5 -3.4 65 -3 -3 по сезону 1012.2 1006.1
17 15.01 ЮВ 6-10
{11}
н/о н/о +1.6 -3.6 68 -4 -4 тепло 1009.3 1003.2
16 15.01 ЮВ 7-11
{11}
н/о н/о +2.1 -3.5 66 -4 -4 по сезону 1010.7 1004.6
18 15.01 ЮВ 6 н/о н/о +1.7 -3.4 69 -4 -4 по сезону 1008.0 1001.9 -2.1 +3.5 0.0
19 15.01 Ю 5-9
{10}
н/о н/о +1.7 -3.6 68 -4 -4 тепло 1007.0 1000.9
20 15.01 ЮВ 7-10
{10}
н/о н/о +1.4 -3.8 68 -5 -5 по сезону 1005.2 999.1
21 15.01 Ю 7-10
{10}
н/о н/о +1.6 -3.8 67 -5 -5 по сезону 1003.5 997.4 0.0
23 15.01 Ю 7-11
{12}
н/о н/о +1.7 -3.8 67 -5 -5 тепло 1000.4 994.3
22 15.01 Ю 5-9
{11}
н/о н/о +1.8 -3.9 66 -3 -3 тепло 1001.6 995.5
00 16.01 Ю 5 н/о н/о +1.5 -2.4 75 -4 -4 по сезону 998.6 992.5 0.2
01 16.01 Ю 6-11
{11}
н/о н/о +1.0 -1.6 83 -5 -5 тепло 997.1 991.0
02 16.01 Ю 6-11
{11}
н/о н/о +0.8 -0.9 88 -6 -6 по сезону 995.5 989.5
03 16.01 Ю 6-9
{11}
н/о н/о +0.6 -0.2 94 -6 -6 по сезону 994.0 988.0 1
05 16.01 Ю 4-7
{9}
н/о н/о +1.3 +0.6 95 -4 -4 тепло 992.1 986.1
04 16.01 Ю 5-8
{11}
н/о н/о +0.8 +0.1 95 -5 -5 тепло 993.1 987.1
06 16.01 Ю 4 н/о н/о +2.1 +1.2 94 -3 -3 по сезону 992.0 986.0 +0.5 +2.1 5
07 16.01 Ю 4-7
{7}
н/о н/о +2.5 +1.6 94 -3 -3 тепло 991.8 985.8
08 16.01 Ю 3-6
{6}
н/о н/о +2.9 +2.1 94 -1 -1 тепло 991.7 985.7
09 16.01 Ю 3 н/о н/о +3.3 +2.4 94 -1 -1 по сезону 991.4 985.4 0.0
11 16.01 ЮЗ 4-6
{8}
н/о н/о +4.9 +3.2 89 +1 +1 тепло 990.5 984.6
10 16.01 Ю 3-6
{7}
н/о н/о +4.6 +3.3 91 +1 +1 тепло 990.9 985.0
12 16.01 ЮЗ 3-5
{8}
н/о н/о +5.3 +3.0 85 +2 +2 тепло 989.9 984.0 0.4
13 16.01 ЮЗ 4-6
{7}
н/о н/о +5.4 +3.1 85 +1 +1 тепло 989.2 983.3
14 16.01 ЮЗ 3-6
{7}
н/о н/о +5.1 +2.3 82 +2 +2 тепло 988.9 983.0
15 16.01 Ю 3-6
{7}
н/о н/о +4.8 +2.3 84 +1 +1 по сезону 988.7 982.8 0.0
17 16.01 З 5-9
{10}
н/о н/о +3.6 +2.1 90 -2 -2 тепло 989.3 983.4
16 16.01 ЮЗ 4-7
{7}
н/о н/о +4.4 +2.2 86 0 0 тепло 988.9 983.0
18 16.01 З 6 н/о н/о +2.9 +1.5 90 -3 -3 по сезону 990.2 984.2 +2.1 +6.0 2
19 16.01 З 5-8
{11}
н/о н/о +2.7 +0.7 87 -3 -3 тепло 990.6 984.6
20 16.01 З 5-7
{7}
н/о н/о +2.7 +0.6 86 -3 -3 тепло 990.7 984.7
21 16.01 З 6-10
{12}
н/о н/о +2.4 +0.2 85 -4 -4 по сезону 991.1 985.1 0.0
23 16.01 З 5-8
{10}
н/о н/о +2.4 -0.1 84 -3 -3 тепло 991.3 985.3
22 16.01 З 4-7
{10}
н/о н/о +2.4 +0.2 85 -2 -2 тепло 991.2 985.2
00 17.01 З 4 н/о н/о +1.9 -0.5 84 -3 -3 по сезону 991.5 985.5
01 17.01 ЮЗ 3-5
{6}
н/о н/о +1.3 -0.8 86 -3 -3 тепло 991.4 985.4
02 17.01 Ю 3-5
{5}
н/о н/о +0.8 -1.1 87 -4 -4 тепло 991.4 985.4
03 17.01 ЮЗ 3-4
{6}
н/о н/о +0.5 -1.2 88 -4 -4 по сезону 991.2 985.2
05 17.01 ЮЗ 4-5
{6}
н/о н/о +0.7 -1.2 87 -5 -5 тепло 991.0 985.0
04 17.01 ЮЗ 4-6
{6}
н/о н/о +0.6 -1.2 88 -5 -5 тепло 991.1 985.1
06 17.01 ЮЗ 3 н/о н/о +1.0 -1.1 86 -3 -3 по сезону 991.0 985.0 +0.4 +3.0 0.0
07 17.01 ЮЗ 3-5
{5}
н/о н/о +1.3 -0.9 85 -3 -3 тепло 991.3 985.3
08 17.01 ЮЗ 3-5
{6}
н/о н/о +1.5 -0.8 85 -3 -3 тепло 991.5 985.5
09 17.01 З 4 н/о н/о +0.9 -0.1 93 -5 -5 по сезону 992.1 986.1 0.2
11 17.01 З 5-8
{10}
н/о н/о +1.6 +0.2 90 -4 -4 тепло 993.6 987.6
10 17.01 З 4-7
{7}
н/о н/о +1.0 +0.2 94 -4 -4 по сезону 993.0 987.0
12 17.01 З 5-9
{10}
н/о н/о +2.1 +0.1 87 -3 -3 по сезону 994.1 988.1 0.5
13 17.01 З 6-10
{11}
н/о н/о +1.6 0.0 89 -5 -5 тепло 994.5 988.5
14 17.01 З 5-7
{9}
н/о н/о +0.8 0.0 94 -5 -5 по сезону 995.4 989.4
15 17.01 З 6-10
{11}
н/о н/о +1.7 -0.1 88 -5 -5 по сезону 996.5 990.5 2
17 17.01 З 4-7
{9}
н/о н/о +2.1 -0.4 84 -3 -3 тепло 998.1 992.1
16 17.01 З 5-8
{10}
н/о н/о +2.0 -0.2 85 -4 -4 по сезону 997.4 991.4
18 17.01 ЮЗ 3 н/о н/о +2.1 -0.9 81 -2 -2 по сезону 998.7 992.7 +0.7 +2.2 0.0
19 17.01 З 5-9
{9}
н/о н/о +2.1 -0.7 82 -3 -3 тепло 999.2 993.2
20 17.01 З 5-9
{10}
н/о н/о +2.2 -0.5 82 -3 -3 тепло 999.9 993.9
21 17.01 З 5-8
{10}
н/о н/о +2.4 -0.5 81 -3 -3 по сезону 1000.8 994.8 0.0
23 17.01 З 4-6
{9}
н/о н/о +2.3 -0.4 82 -3 -3 тепло 1002.3 996.2
22 17.01 З 5-7
{8}
н/о н/о +2.3 -0.3 83 -3 -3 тепло 1001.5 995.5
00 18.01 З 6 н/о н/о +2.4 -0.3 82 -3 -3 по сезону 1002.6 996.5 0.0
01 18.01 З 5-8
{10}
н/о н/о +2.5 -0.2 82 -3 -3 тепло 1002.9 996.8
02 18.01 З 5-8
{10}
н/о н/о +2.6 -0.1 82 -3 -3 тепло 1002.9 996.8
03 18.01 З 4-6
{10}
н/о н/о +2.4 +0.6 88 -3 -3 по сезону 1002.9 996.8 0.2
05 18.01 ЮЗ 5-7
{7}
н/о н/о +1.8 -0.5 85 -4 -4 тепло 1001.9 995.8
04 18.01 ЮЗ 4-7
{7}
н/о н/о +2.6 +0.4 85 -2 -2 тепло 1002.1 996.1
06 18.01 ЮЗ 5 н/о н/о +2.1 -0.6 82 -3 -3 по сезону 1000.7 994.7 +1.8 +2.7 0.2
07 18.01 ЮЗ 4-7
{8}
н/о н/о +1.9 -0.8 82 -3 -3 тепло 999.6 993.6
08 18.01 Ю 4-7
{9}
н/о н/о +2.2 -0.9 80 -3 -3 тепло 997.6 991.6
09 18.01 Ю 5 н/о н/о +2.8 -0.8 77 -2 -2 по сезону 995.4 989.4
11 18.01 ЮВ 6-10
{11}
н/о н/о +0.8 +0.1 95 -6 -6 тепло 989.0 983.0
10 18.01 Ю 5-8
{12}
н/о н/о +2.2 +0.6 89 -3 -3 по сезону 992.5 986.5
12 18.01 Ю 6-10
{12}
н/о н/о +1.4 +0.6 94 -5 -5 прохладно 985.7 979.7 5
13 18.01 Ю 5-8
{10}
н/о н/о +3.0 +1.6 91 -2 -2 тепло 983.2 977.3
14 18.01 ЮЗ 5-9
{9}
н/о н/о +5.4 +2.9 84 +1 +1 тепло 981.3 975.4
15 18.01 З 9-15
{17}
н/о н/о +5.3 +2.3 81 -1 -1 по сезону 981.3 975.4 1
17 18.01 З 9-14
{15}
н/о н/о +3.7 +2.1 89 -3 -3 тепло 983.7 977.8
16 18.01 З 8-13
{17}
н/о н/о +4.1 +2.6 90 -2 -2 тепло 982.4 976.5
18 18.01 З 14 н/о н/о +1.9 +0.4 90 -7 -7 прохладно 986.9 980.9 +0.6 +5.8 1
19 18.01 З 11-17
{20}
н/о н/о +1.8 +0.4 90 -6 -6 тепло 990.2 984.2
20 18.01 СЗ 11-15
{19}
н/о н/о +2.3 +0.1 85 -5 -5 по сезону 993.1 987.1
21 18.01 СЗ 10-14
{20}
н/о н/о +2.4 +0.1 85 -5 -5 по сезону 995.5 989.5 0.3
22 18.01 СЗ 7-11
{15}
н/о н/о +2.3 -0.2 84 -4 -4 по сезону 997.4 991.4

 

Местоположение метеостанции Berlin (Германия): широта 52.47 долгота 13.40 высота над уровнем моря 50 м.

В архиве по умолчанию представлена погода в Berlin за последнюю неделю. Архивные данные за месяц целиком и за предыдущие месяцы, начиная с января 2011 года, Вы можете получить, выбрав интересующий диапазон дат из раскрывающегося списка и нажав кнопку "Ввод!".

Внимание! Время в таблицах - всемирное. Для получения местного времени необходимо прибавить поправку, которая в Berlin равна 1 ч.

Смотрите также архив погоды в соседних городах и на ближайших метеорологических станциях:

Погода в Berlin-Dahlem (Германия) (7 км)
Погода в Berlin-Tegel (Германия) (12 км)
Погода в Berlin-Schonefeld (Германия) (13 км)
Погода в Potsdam (Германия) (25 км)
Погода в Baruth (Германия) (42 км)
Погода в Lindenberg (Германия) (56 км)
Погода в Neuruppin (Германия) (62 км)
Погода в Angermuende (Германия) (74 км)
Погода в Wiesenburg (Германия) (74 км)
Погода в Manschnow (Германия) (78 км)

Пояснения к столбцам:

Ветер - указаны скорость ветра в м/с - средняя за 10 мин, порывы в срок и между сроками (в фигурных скобках) и направление, откуда дует ветер: С - северный, СВ - северо-восточный, В - восточный, ЮВ - юго-восточный, Ю - южный, ЮЗ - юго-западный, З - западный, СЗ - северо-западный.
Видимость - горизонтальная дальность видимости в метрах или километрах. При видимости от 1 до 10 км при отсутствии осадков обычно наблюдается дымка, при ухудшении видимости до 1 км и менее - туман. В сухую погоду видимость может ухудшаться дымом, пылью или мглою.
Явления - указаны атмосферные явления, наблюдавшиеся в срок или в последний час перед сроком; фигурными скобками обозначены явления, наблюдавшиеся между сроками (за 1-3 часа до срока); квадратными скобками обозначены град или гололедные отложения с указанием их диаметра в мм.
Облачность - указаны через наклонную черту общая и нижняя облачность в баллах и высота нижней границы облаков в метрах; квадратными скобками обозначены формы облаков: Ci - перистые, Cs - перисто-слоистые, Cc - перисто-кучевые, Ac - высококучевые, As - высокослоистые, Sc - слоисто-кучевые, Ns - слоисто-дождевые, Cu - кучевые, Cb - кучево-дождевые. Подробнее классификацию облаков см. в Атласе облаков (PDF).
T - Температура воздуха - температура, измеренная на высоте 2 м над землей.
Td - Температура точки росы - температура, при понижении до которой содержащийся в воздухе водяной пар достигнет насыщения.
f - Относительная влажность воздуха - влажноcть воздуха, измеренная на высоте 2 м над землей.
Te - Эффективная температура - температура, которую ощущает одетый по сезону человек в тени. Характеристика душности погоды. При расчете учитывается влияние влажности воздуха и скорости ветра на теплоощущения человека.
Tes - Эффективная температура на солнце - температура, которую ощущает человек, с поправкой на солнечный нагрев. Характеристика знойности погоды. Зависит от высоты солнца над горизонтом, облачности и скорости ветра. Ночью, в пасмурную погоду, а также при ветре 12 м/с и более поправка равна нулю.
P - Атмосферное давление - приведенное к уровню моря атмосферное давление.
Po - Атмосферное давление - измеренное на уровне метеостанции атмосферное давление.
Tmin - Минимальная температура - минимум температуры воздуха на высоте 2 м над землей.
Tmax - Максимальная температура - максимум температуры воздуха на высоте 2 м над землей.
R - Количество осадков - Количество выпавших осадков за период времени, мм. При наведении курсора мыши на число - период времени, за который выпало указанное количество осадков.
R24 - Количество осадков - Количество выпавших осадков за 24 часа, мм.
S - Снежный покров - Высота снежного покрова, см. При наведении курсора мыши на число - состояние снежного покрова и степень покрытия местности в баллах.